Location: Home
(42.5358°N, 72.7383°W)
Time: 06:44:25
(UTC-05:00)

Courier 1B Rocket - Pass Details

Date: 02 December 2021
Orbit: 920 x 1202 km, 28.2° (Epoch: 25 January)

Event Time Altitude Azimuth Distance (km) Brightness Sun altitude
Rises 01:36:30 0° 246° (WSW) 3,549 - -58.3°
Reaches altitude 10° 01:39:43 10° 231° (SW) 2,603 - -57.8°
Maximum altitude 01:44:13 21° 184° (S) 1,940 - -57.0°
Drops below altitude 10° 01:48:49 10° 137° (SE) 2,648 - -56.3°
Sets 01:52:07 0° 122° (ESE) 3,628 - -55.8°
